Bilingurr, Australia

12:54 PM AWST on July 16, 2018 (GMT +0800)
Bilingurr

Weather History for 94203 - July, 2018

Change the Weather History Date:

Thursday, July 12, 2018

  Actual Average Record
Temperature  
Mean Temperature 68 °F -  
Max Temperature 84 °F 85 °F - ()
Min Temperature 53 °F 57 °F - ()
Cooling Degree Days 4    
Growing Degree Days 18 (Base 50)    
Moisture  
Dew Point 39 °F    
Average Humidity 35    
Maximum Humidity 64    
Minimum Humidity 5    
Precipitation  
Precipitation 0.00 in 0.00 in - ()
Sea Level Pressure  
Sea Level Pressure 29.98 in    
Wind  
Wind Speed 6 mph ()    
Max Wind Speed 14 mph    
Max Gust Speed -    
Visibility 6.2 miles    
Events      
T = Trace of Precipitation, MM = Missing Value Source: Averaged Metar Reports

Daily Weather History Graph

Daily Weather History Graph

Search for Another Location

Airport or City:

Astronomy

Jul. 12, 2018 Rise Set
Actual Time 6:23 AM AWST 5:30 PM AWST
Civil Twilight 5:59 AM AWST 5:54 PM AWST
Nautical Twilight 5:32 AM AWST 6:20 PM AWST
Astronomical Twilight 5:06 AM AWST 6:47 PM AWST
Moon 5:09 AM AWST (7/12) 4:40 PM AWST (7/12)
Length of Visible Light 11h 54m
Length of Day
11h 07m
Waning Crescent, 1% of the Moon is Illuminated
Jul 12
Waning Crescent
Jul 13
New
Jul 20
First Quarter
Jul 28
Full
Aug 5
Last Quarter

Hourly Weather History & Observations

Time (AWST) Temp. Dew Point Humidity Pressure Visibility Wind Dir Wind Speed Gust Speed Precip Events Conditions
12:00 AM 60 °F 42 °F 40% 30.02 in - East 4.6 mph - -   Clear
12:00 AM 60.8 °F 42.8 °F 52% 30.01 in 6.2 mi East 4.6 mph - N/A   Unknown
12:30 AM 60.8 °F 41.0 °F 48% 30.01 in 6.2 mi SE 3.5 mph - N/A   Unknown
1:00 AM 59.0 °F 41.0 °F 51% 30.01 in 6.2 mi Calm Calm - N/A   Unknown
1:30 AM 59.0 °F 41.0 °F 51% 29.98 in 6.2 mi East 2.3 mph - N/A   Unknown
2:00 AM 58 °F 43 °F 46% 29.99 in - Calm Calm - -  
2:00 AM 57.2 °F 42.8 °F 59% 29.98 in 6.2 mi Calm Calm - N/A   Unknown
2:30 AM 57.2 °F 41.0 °F 55% 29.98 in 6.2 mi Calm Calm - N/A   Unknown
3:00 AM 58 °F 39 °F 38% 29.99 in - East 4.6 mph - -   Clear
3:00 AM 59.0 °F 39.2 °F 48% 29.98 in 6.2 mi East 4.6 mph - N/A   Unknown
3:30 AM 57.2 °F 39.2 °F 51% 29.98 in 6.2 mi East 2.3 mph - N/A   Unknown
4:00 AM 57.2 °F 39.2 °F 51% 29.98 in 6.2 mi East 3.5 mph - N/A   Unknown
4:30 AM 57.2 °F 39.2 °F 51% 29.98 in 6.2 mi ESE 5.8 mph - N/A   Unknown
5:00 AM 55.4 °F 39.2 °F 54% 29.98 in 6.2 mi East 5.8 mph - N/A   Unknown
5:30 AM 55.4 °F 39.2 °F 54% 29.98 in 6.2 mi East 4.6 mph - N/A   Unknown
6:00 AM 55 °F 38 °F 41% 30.01 in - ESE 5.8 mph - -   Clear
6:00 AM 55.4 °F 37.4 °F 51% 30.01 in 6.2 mi ESE 5.8 mph - N/A   Unknown
7:00 AM 57.2 °F 39.2 °F 51% 30.01 in 6.2 mi East 5.8 mph - N/A   Unknown
7:30 AM 60.8 °F 37.4 °F 42% 30.04 in - East 5.8 mph - N/A   Clear
8:00 AM 65 °F 36 °F 23% 30.05 in - East 8.1 mph - -  
8:00 AM 64.4 °F 35.6 °F 34% 30.04 in - East 8.1 mph - N/A   Clear
8:30 AM 68.0 °F 33.8 °F 28% 30.04 in - East 8.1 mph - N/A   Clear
9:00 AM 72 °F 33 °F 14% 30.06 in - East 10.4 mph - -   Clear
9:00 AM 71.6 °F 32.0 °F 23% 30.04 in - East 10.4 mph - N/A   Clear
9:30 AM 73.4 °F 32.0 °F 22% 30.04 in - ESE 10.4 mph - N/A   Clear
10:00 AM 77.0 °F 30.2 °F 18% 30.04 in - East 12.7 mph - N/A   Clear
10:30 AM 78.8 °F 33.8 °F 20% 30.01 in - East 10.4 mph - N/A   Clear
11:00 AM 80 °F 37 °F 12% 30.02 in - ESE 9.2 mph - -  
11:00 AM 80.6 °F 37.4 °F 21% 30.01 in - ESE 9.2 mph - N/A   Clear
11:30 AM 82.4 °F 33.8 °F 17% 29.98 in - SE 13.8 mph - N/A   Clear
12:00 PM 83 °F 25 °F 5% 29.99 in - SE 12.7 mph - -   Clear
12:00 PM 82.4 °F 24.8 °F 12% 29.98 in - SE 12.7 mph - N/A   Clear
12:30 PM 84.2 °F 28.4 °F 13% 29.95 in - SSE 11.5 mph - N/A   Clear
1:00 PM 82.4 °F 28.4 °F 14% 29.95 in - SE 10.4 mph - N/A   Clear
1:30 PM 84.2 °F 33.8 °F 16% 29.92 in - SE 12.7 mph - N/A   Clear
2:00 PM 83 °F 38 °F 12% 29.94 in - SE 12.7 mph - -  
2:00 PM 84.2 °F 39.2 °F 20% 29.92 in - SE 12.7 mph - N/A   Clear
2:30 PM 82.4 °F 35.6 °F 19% 29.92 in - SE 11.5 mph - N/A   Clear
3:00 PM 84 °F 30 °F 7% 29.92 in - SE 12.7 mph - -   Clear
3:00 PM 84.2 °F 30.2 °F 14% 29.92 in - SE 12.7 mph - N/A   Clear
3:30 PM 82.4 °F 39.2 °F 21% 29.92 in - SE 11.5 mph - N/A   Clear
4:00 PM 80.6 °F 39.2 °F 23% 29.92 in 6.2 mi SE 10.4 mph - N/A   Unknown
4:30 PM 78.8 °F 42.8 °F 28% 29.92 in 6.2 mi SE 10.4 mph - N/A   Unknown
5:00 PM 78 °F 44 °F 19% 29.93 in - SE 9.2 mph - -  
5:00 PM 77.0 °F 44.6 °F 32% 29.92 in 6.2 mi SE 9.2 mph - N/A   Unknown
5:30 PM 77.0 °F 46.4 °F 34% 29.92 in 6.2 mi SSE 8.1 mph - N/A   Unknown
6:00 PM 72 °F 50 °F 35% 29.95 in - SW 9.2 mph - -   Clear
6:00 PM 73.4 °F 50.0 °F 44% 29.95 in 6.2 mi SW 9.2 mph - N/A   Unknown
6:30 PM 71.6 °F 53.6 °F 53% 29.95 in 6.2 mi SW 6.9 mph - N/A   Unknown
7:00 PM 69.8 °F 53.6 °F 56% 29.95 in 6.2 mi SW 5.8 mph - N/A   Unknown
7:30 PM 69.8 °F 55.4 °F 60% 29.98 in 6.2 mi SSW 4.6 mph - N/A   Unknown
8:00 PM 68 °F 56 °F 55% 29.99 in - SSW 4.6 mph - -  
8:00 PM 68.0 °F 55.4 °F 64% 29.98 in 6.2 mi SSW 4.6 mph - N/A   Unknown
9:00 PM 69 °F 43 °F 28% 30.00 in - SE 6.9 mph - -   Clear
9:00 PM 69.8 °F 42.8 °F 38% 29.98 in 6.2 mi SE 6.9 mph - N/A   Unknown
9:30 PM 66.2 °F 46.4 °F 49% 30.01 in 6.2 mi ESE 5.8 mph - N/A   Unknown
10:00 PM 62.6 °F 42.8 °F 48% 30.01 in 6.2 mi East 3.5 mph - N/A   Unknown
10:30 PM 62.6 °F 37.4 °F 39% 30.01 in 6.2 mi East 3.5 mph - N/A   Unknown
11:00 PM 60 °F 35 °F 26% 30.01 in - ESE 3.5 mph - -  
11:00 PM 60.8 °F 33.8 °F 36% 30.01 in 6.2 mi ESE 3.5 mph - N/A   Unknown
11:30 PM 60.8 °F 28.4 °F 29% 30.01 in 6.2 mi SE 5.8 mph - N/A   Unknown